RADUGA-1M 2

Last updated on Mon Oct 14 2024 00:02:38 GMT+0000 (Coordinated Universal Time)

1 36358U 10002A 24287.56747340 -.00000184 00000+0 00000+0 0 9999 2 36358 2.0214 86.8173 0003292 140.1258 84.9912 1.00270509 43954
UTC large
Height (km)
Speed (km/s)
/
Latitude / Longitude
Inclination (degrees)
Orbital Period (minutes)
Azimuth
Elevation
Range (km)
Doppler Factor

Next 0 passes for location: London (51.5072 / 0.1276)

Sorry there are no passes over London.